Location: Home
(51.5204°N, 2.5456°W)
Time: 05:29:58
(UTC+00:00)

STRAND 1 - Pass Details

Date: 12 December 2019
Orbit: 768 x 781 km, 98.5° (Epoch: 20 January)

Event Time Altitude Azimuth Distance (km) Brightness Sun altitude
Rises 06:10:25 0° 151° (SSE) 3,246 ? -16.8°
Reaches altitude 10° 06:12:45 10° 148° (SSE) 2,321 ? -16.5°
Maximum altitude 06:17:47 60° 69° (ENE) 884 ? -15.7°
Drops below altitude 10° 06:22:49 10° 351° (N) 2,329 ? -15.0°
Enters shadow 06:25:07 - 348° (NNW) 3,243 ? -14.7°
